FW9231 Weather Reports


time (UTC)temp
F
wind
direction
speed
knots
gust
knots
rain 1hr
in
rain 24hr
in
rain mn
in
humidity
%
barometer
mb
20260503185447 68 226 0.0 0.9 0.00 0.00 0.00 34 1016.6
20260503184946 68 223 0.0 0.9 0.00 0.00 0.00 34 1016.6
20260503184443 68 212 0.0 0.0 0.00 0.00 0.00 34 1016.7
20260503183939 68 250 1.7 1.7 0.00 0.00 0.00 35 1016.7
20260503183436 68 237 0.9 0.9 0.00 0.00 0.00 35 1016.8
20260503182933 69 56 0.9 1.7 0.00 0.00 0.00 35 1017.0
20260503182432 67 30 2.6 2.6 0.00 0.00 0.00 35 1016.9
20260503181929 68 239 1.7 1.7 0.00 0.00 0.00 36 1016.9
20260503181426 69 211 0.0 0.9 0.00 0.00 0.00 35 1016.9
20260503180921 67 255 0.9 0.9 0.00 0.00 0.00 36 1016.8
20260503180420 67 235 0.0 0.9 0.00 0.00 0.00 35 1017.1
20260503175916 68 279 1.7 1.7 0.00 0.00 0.00 36 1017.0
20260503175414 67 219 0.0 0.9 0.00 0.00 0.00 36 1016.8
20260503174909 66 224 0.0 0.0 0.00 0.00 0.00 38 1017.0
20260503174408 65 219 0.0 0.9 0.00 0.00 0.00 38 1017.1
20260503173903 66 262 1.7 2.6 0.00 0.00 0.00 38 1017.3
20260503173359 65 243 0.0 0.9 0.00 0.00 0.00 37 1017.1
20260503172856 65 216 0.0 0.0 0.00 0.00 0.00 41 1017.4
20260503172354 64 216 0.0 0.9 0.00 0.00 0.00 38 1017.5
20260503171850 64 254 2.6 2.6 0.00 0.00 0.00 41 1017.5
20260503171347 65 30 2.6 2.6 0.00 0.00 0.00 38 1017.6
20260503170844 64 206 0.9 0.9 0.00 0.00 0.00 42 1017.7
20260503170340 64 247 1.7 1.7 0.00 0.00 0.00 41 1017.8
20260503150733 57 210 0.0 0.0 0.00 0.00 0.00 50 1018.6
20260503150229 57 202 0.9 0.9 0.00 0.00 0.00 53 1018.8
20260503140153 56 247 0.9 1.7 0.00 0.00 0.00 50 1018.5
20260503131123 54 209 0.9 0.9 0.00 0.00 0.00 62 1018.6
20260503130621 53 273 0.0 0.9 0.00 0.00 0.00 57 1018.6
20260503130118 53 232 0.9 1.7 0.00 0.00 0.00 59 1018.4
20260503110511 43 225 0.0 0.0 0.00 0.00 0.00 84 1017.5
20260503090402 43 225 0.0 0.0 0.00 0.00 0.00 84 1016.2
20260503081329 44 225 0.0 0.0 0.00 0.00 0.00 86 1015.8
20260503080826 44 225 0.0 0.0 0.00 0.00 0.00 87 1015.7
20260503080323 44 225 0.0 0.0 0.00 0.00 0.00 88 1015.9
20260503072759 45 225 0.0 0.0 0.00 0.00 0.00 87 1015.3
20260503072256 45 225 0.0 0.0 0.00 0.00 0.00 91 1015.0
20260503071752 45 225 0.0 0.0 0.00 0.00 0.00 91 1014.9
20260503071249 44 225 0.0 0.0 0.00 0.00 0.00 91 1014.7
20260503070746 45 225 0.0 0.0 0.00 0.00 0.00 92 1014.9
20260503070244 45 225 0.0 0.0 0.00 0.00 0.00 92 1014.8
20260503060209 45 225 0.0 0.0 0.00 0.00 0.00 94 1014.6
20260503054655 45 225 0.0 0.0 0.00 0.00 0.00 94 1014.9
20260503054153 45 225 0.0 0.0 0.00 0.00 0.00 94 1014.6
20260503053651 45 225 0.0 0.0 0.00 0.00 0.00 94 1014.8
20260503053149 45 225 0.0 0.0 0.00 0.00 0.00 94 1014.8
20260503052645 45 225 0.0 0.0 0.00 0.00 0.00 94 1014.7
20260503052141 46 225 0.0 0.0 0.00 0.00 0.00 94 1014.8
20260503051637 46 225 0.0 0.0 0.00 0.00 0.00 94 1014.6
20260503051135 46 225 0.0 0.0 0.00 0.00 0.00 93 1014.6
20260503050632 46 225 0.0 0.0 0.00 0.00 0.00 93 1014.6
20260503050128 46 225 0.0 0.0 0.00 0.00 0.00 93 1014.6
20260503045626 46 225 0.0 0.0 0.00 0.00 0.00 93 1014.6
20260503045123 46 225 0.0 0.0 0.00 0.00 0.00 92 1014.6
20260503044619 46 225 0.0 0.0 0.00 0.00 0.00 92 1014.6
20260503044116 47 225 0.0 0.0 0.00 0.00 0.00 92 1014.3
20260503043613 47 225 0.0 0.0 0.00 0.00 0.00 90 1014.3
20260503043110 47 226 0.0 0.0 0.00 0.00 0.00 89 1014.3
20260503042607 47 223 0.0 0.0 0.00 0.00 0.00 88 1014.2
20260503042103 47 223 0.0 0.0 0.00 0.00 0.00 88 1014.2
20260503041600 48 223 0.0 0.0 0.00 0.00 0.00 88 1014.1
20260503041058 48 223 0.0 0.0 0.00 0.00 0.00 89 1014.0
20260503040554 48 223 0.0 0.0 0.00 0.00 0.00 88 1014.2
20260503040051 48 223 0.0 0.0 0.00 0.02 0.02 89 1013.9
20260503035548 48 223 0.0 0.0 0.00 0.02 0.02 90 1014.0
20260503035046 48 223 0.0 0.0 0.00 0.02 0.02 89 1014.0
20260503034543 48 223 0.0 0.0 0.00 0.02 0.02 89 1014.0
20260503034040 48 223 0.0 0.0 0.00 0.02 0.02 90 1013.9
20260503033537 49 223 0.0 0.0 0.00 0.02 0.02 90 1013.8
20260503033035 49 223 0.9 0.9 0.00 0.02 0.02 90 1013.9
20260503032533 49 223 0.0 0.0 0.00 0.02 0.02 89 1014.1
20260503032031 49 223 0.0 0.0 0.00 0.02 0.02 89 1014.0
20260503031529 49 222 0.0 0.0 0.00 0.02 0.02 89 1013.9
20260503031026 49 222 0.9 0.9 0.00 0.02 0.02 90 1013.6
20260503030521 49 222 0.9 0.9 0.00 0.02 0.02 89 1013.8
20260503030019 49 223 0.0 0.0 0.00 0.02 0.02 89 1013.7
20260503025515 49 223 0.0 0.0 0.00 0.02 0.02 88 1013.6
20260503025013 49 223 0.0 0.0 0.00 0.02 0.02 88 1013.7
20260503024509 50 223 0.0 0.0 0.00 0.02 0.02 87 1013.5
20260503024007 50 223 0.0 0.0 0.00 0.02 0.02 87 1013.4
20260503023503 50 223 0.0 0.0 0.00 0.02 0.02 87 1013.4
20260503023000 50 223 0.0 0.0 0.00 0.02 0.02 87 1013.5
20260503022456 50 223 0.0 0.0 0.00 0.02 0.02 86 1013.5
20260503021951 50 223 0.0 0.0 0.00 0.02 0.02 86 1013.3
20260503021448 50 223 0.0 0.0 0.00 0.02 0.02 85 1013.2
20260503020945 50 223 0.0 0.0 0.00 0.02 0.02 85 1013.1
20260503020443 51 223 0.0 0.0 0.00 0.02 0.02 85 1013.1
20260503015939 51 223 0.0 0.0 0.00 0.02 0.02 84 1013.0
20260503015436 51 223 0.0 0.0 0.00 0.02 0.02 83 1012.9
20260503014932 51 223 0.0 0.0 0.00 0.02 0.02 82 1012.8
20260503014429 51 223 0.0 0.0 0.00 0.02 0.02 82 1012.8
20260503013927 51 223 0.0 0.0 0.00 0.02 0.02 82 1012.5
20260503013424 51 223 0.0 0.0 0.00 0.02 0.02 80 1012.6
20260503012921 51 223 0.0 0.0 0.00 0.02 0.02 80 1012.4
20260503012419 52 223 0.0 0.0 0.00 0.02 0.02 78 1012.3
20260503011915 52 223 0.0 0.0 0.00 0.02 0.02 78 1012.3
20260503011412 52 223 0.0 0.0 0.00 0.02 0.02 78 1012.1
20260503010909 53 223 0.0 0.0 0.00 0.02 0.02 76 1012.0
20260503010406 53 223 0.0 0.0 0.00 0.02 0.02 76 1012.0
20260503005903 53 223 0.0 0.0 0.00 0.02 0.02 74 1012.0
20260503005400 53 223 0.0 0.0 0.00 0.02 0.02 75 1012.1
20260503004856 53 223 0.0 0.0 0.00 0.02 0.02 73 1012.1
20260503004354 53 223 0.0 0.0 0.00 0.02 0.02 72 1011.9
20260503003851 53 223 0.0 0.0 0.00 0.02 0.02 71 1011.6
20260503003348 53 223 0.0 0.0 0.00 0.02 0.02 71 1011.7
20260503002845 53 223 0.0 0.0 0.00 0.02 0.02 69 1011.6
20260503002342 53 223 0.0 0.0 0.00 0.02 0.02 67 1011.3
20260503001838 53 223 0.0 0.0 0.00 0.02 0.02 67 1011.2
20260503001335 54 223 0.0 0.0 0.00 0.02 0.02 67 1011.2
20260503000832 54 223 0.0 0.0 0.00 0.02 0.02 64 1010.8
20260503000330 55 223 0.0 0.0 0.00 0.02 0.02 63 1010.7
20260502235827 55 223 0.0 0.0 0.00 0.02 0.02 62 1010.9
20260502235324 55 223 0.0 0.0 0.00 0.02 0.02 62 1010.6
20260502234820 56 223 0.0 0.0 0.00 0.02 0.02 60 1010.8
20260502234317 56 223 0.0 0.0 0.00 0.02 0.02 60 1010.7
20260502233814 57 223 0.0 0.0 0.00 0.02 0.02 60 1010.6
20260502233311 57 223 0.0 0.0 0.00 0.02 0.02 59 1010.4
20260502232807 58 223 0.0 0.0 0.00 0.02 0.02 53 1010.6
20260502232305 59 223 0.0 0.9 0.00 0.02 0.02 50 1010.5
20260502231800 59 223 0.0 0.9 0.00 0.02 0.02 48 1010.3
20260502231258 59 218 0.0 0.0 0.00 0.02 0.02 54 1010.5
20260502230756 60 218 0.0 0.0 0.00 0.02 0.02 49 1010.5
20260502230254 60 222 0.9 0.9 0.00 0.02 0.02 45 1010.3
20260502225750 60 222 0.9 0.9 0.00 0.02 0.02 45 1010.2
20260502225247 60 225 0.0 0.0 0.00 0.02 0.02 45 1010.2
20260502224744 60 226 0.0 0.0 0.00 0.02 0.02 43 1010.3
20260502224240 60 247 1.7 1.7 0.00 0.02 0.02 44 1010.2
20260502223738 60 263 2.6 2.6 0.00 0.02 0.02 44 1010.4
20260502223236 60 215 0.0 0.0 0.00 0.02 0.02 44 1010.4
20260502222733 60 215 0.0 0.0 0.00 0.02 0.02 43 1010.5
20260502222230 60 227 0.9 0.9 0.00 0.02 0.02 46 1010.5
20260502221725 61 219 0.0 0.9 0.00 0.02 0.02 44 1010.3
20260502221223 61 224 0.0 0.0 0.00 0.02 0.02 44 1010.2
20260502220719 61 222 0.0 0.0 0.00 0.02 0.02 45 1010.1
20260502220215 61 223 0.0 0.0 0.00 0.02 0.02 44 1010.1
20260502215712 61 231 0.0 0.0 0.00 0.02 0.02 43 1010.0
20260502215209 61 225 0.9 0.9 0.00 0.02 0.02 45 1010.5
20260502214707 60 238 0.9 0.9 0.00 0.02 0.02 42 1010.0
20260502214204 60 227 0.0 0.0 0.00 0.02 0.02 44 1010.1
20260502213701 60 220 0.9 0.9 0.00 0.02 0.02 43 1010.0
20260502213158 61 235 0.9 0.9 0.00 0.02 0.02 44 1009.8
20260502212656 61 252 2.6 2.6 0.00 0.02 0.02 42 1010.2
20260502212154 61 221 0.0 0.0 0.00 0.02 0.02 44 1010.0
20260502211650 61 234 0.9 0.9 0.00 0.02 0.02 41 1009.8
20260502211147 61 235 0.9 0.9 0.00 0.02 0.02 41 1010.1
20260502210644 61 236 0.9 0.9 0.00 0.02 0.02 41 1010.1
20260502210141 61 220 0.0 0.0 0.00 0.02 0.02 44 1010.3
20260502205638 60 226 0.0 0.0 0.00 0.02 0.02 46 1010.1
20260502205135 60 236 1.7 1.7 0.00 0.02 0.02 47 1010.1
20260502204632 60 224 0.9 1.7 0.00 0.02 0.02 47 1009.8
20260502204129 60 256 0.9 1.7 0.00 0.02 0.02 46 1010.0
20260502203626 60 226 0.0 0.0 0.00 0.02 0.02 47 1010.0
20260502203125 60 226 0.0 0.9 0.00 0.02 0.02 46 1010.0
20260502202619 60 225 0.0 0.0 0.00 0.02 0.02 47 1010.0
20260502202117 60 224 0.0 0.0 0.00 0.02 0.02 44 1010.3
20260502201614 60 226 0.9 0.9 0.00 0.02 0.02 43 1010.2
20260502201110 60 222 0.9 0.9 0.00 0.02 0.02 45 1010.2
20260502200606 60 203 0.9 0.9 0.00 0.02 0.02 45 1010.4
20260502200104 60 221 0.9 1.7 0.00 0.02 0.02 44 1010.4
20260502195602 60 216 0.9 0.9 0.00 0.02 0.02 44 1010.3
20260502195057 61 275 2.6 4.3 0.00 0.02 0.02 42 1010.2
20260502194554 60 285 2.6 2.6 0.00 0.02 0.02 42 1010.4
20260502194050 60 224 0.9 0.9 0.00 0.02 0.02 44 1010.5
20260502193548 60 232 2.6 2.6 0.00 0.02 0.02 43 1010.7
20260502193044 59 213 0.9 0.9 0.00 0.02 0.02 43 1010.8
20260502192540 59 243 2.6 2.6 0.00 0.02 0.02 43 1010.6
20260502192038 59 228 1.7 1.7 0.00 0.02 0.02 44 1010.9
20260502191534 59 253 0.9 1.7 0.00 0.02 0.02 46 1011.0
20260502191032 60 227 1.7 2.6 0.00 0.02 0.02 45 1010.8
20260502190530 60 257 2.6 4.3 0.00 0.02 0.02 45 1010.8
20260502190027 59 211 0.0 0.0 0.00 0.02 0.02 53 1011.0